• In Deutschland
  • Länderverzeichnis
  • Für 7 Tage
  • Wassertemperatur
  • Satellitenkarten
  • Wetterkarte
  • Widgets
  • user-avatar
    Anmelden

    Stündliche Wetter Nürtingen

    Heute, 20 August, Montag

    Zeit Temperatur Niederschläge Wind Luftdruck Luftfeuchtigkeit
    00:00 +21°C° 0 mm 1 m/S 741 mmHg 77%
    01:00 +20°C° 0 mm 1 m/S 741 mmHg 78%
    02:00 +20°C° 0 mm 1 m/S 741 mmHg 79%
    03:00 +19°C° 0 mm 1 m/S 741 mmHg 80%
    04:00 +19°C° 0 mm 1 m/S 740 mmHg 81%
    05:00 +20°C° 0 mm 1 m/S 741 mmHg 79%
    06:00 +20°C° 0 mm 1 m/S 741 mmHg 78%
    07:00 +21°C° 0 mm 1 m/S 741 mmHg 76%
    08:00 +23°C° 0 mm 1 m/S 741 mmHg 70%
    09:00 +25°C° 0 mm 1 m/S 741 mmHg 65%
    10:00 +26°C° 0 mm 1 m/S 741 mmHg 59%
    11:00 +27°C° 0 mm 2 m/S 741 mmHg 56%
    12:00 +28°C° 0 mm 2 m/S 741 mmHg 54%
    13:00 +29°C° 0 mm 2 m/S 741 mmHg 51%
    14:00 +29°C° 0 mm 2 m/S 740 mmHg 52%
    15:00 +29°C° 0 mm 3 m/S 740 mmHg 53%
    16:00 +29°C° 0 mm 3 m/S 740 mmHg 54%
    17:00 +27°C° 0 mm 3 m/S 740 mmHg 61%
    18:00 +26°C° 0 mm 2 m/S 740 mmHg 68%
    19:00 +24°C° 0 mm 2 m/S 740 mmHg 75%
    20:00 +23°C° 0 mm 2 m/S 740 mmHg 79%
    21:00 +22°C° 0 mm 1 m/S 741 mmHg 84%
    22:00 +20°C° 0 mm 1 m/S 741 mmHg 88%
    23:00 +20°C° 0 mm 1 m/S 741 mmHg 89%

    Morgen, 21 August, Dienstag

    Zeit Temperatur Niederschläge Wind Luftdruck Luftfeuchtigkeit
    00:00 +18°C° 0 mm 0 m/S 741 mmHg 90%
    01:00 +17°C° 0 mm 0 m/S 741 mmHg 92%
    02:00 +17°C° 0 mm 0 m/S 741 mmHg 92%
    03:00 +17°C° 0 mm 0 m/S 740 mmHg 92%
    04:00 +17°C° 0 mm 0 m/S 740 mmHg 92%
    05:00 +17°C° 0 mm 0 m/S 740 mmHg 90%
    06:00 +18°C° 0 mm 0 m/S 741 mmHg 88%
    07:00 +19°C° 0 mm 0 m/S 741 mmHg 86%
    08:00 +23°C° 0 mm 1 m/S 741 mmHg 80%
    09:00 +24°C° 0 mm 1 m/S 741 mmHg 73%
    10:00 +26°C° 0 mm 1 m/S 741 mmHg 67%
    11:00 +27°C° 0 mm 2 m/S 741 mmHg 64%
    12:00 +28°C° 0 mm 2 m/S 740 mmHg 60%
    13:00 +29°C° 0 mm 2 m/S 740 mmHg 57%
    14:00 +29°C° 0 mm 2 m/S 740 mmHg 57%
    15:00 +29°C° 0 mm 2 m/S 739 mmHg 58%
    16:00 +28°C° 0 mm 2 m/S 739 mmHg 59%
    17:00 +27°C° 0,1 mm 2 m/S 739 mmHg 64%
    18:00 +26°C° 0,1 mm 2 m/S 739 mmHg 69%
    19:00 +25°C° 0,1 mm 2 m/S 739 mmHg 75%
    20:00 +24°C° 0 mm 1 m/S 739 mmHg 78%
    21:00 +23°C° 0 mm 1 m/S 740 mmHg 81%
    22:00 +22°C° 0 mm 1 m/S 740 mmHg 83%
    23:00 +21°C° 0 mm 1 m/S 740 mmHg 85%

    übermorgen, 22 August, Mittwoch

    Zeit Temperatur Niederschläge Wind Luftdruck Luftfeuchtigkeit
    00:00 +21°C° 0 mm 1 m/S 740 mmHg 86%
    01:00 +20°C° 0 mm 1 m/S 739 mmHg 88%
    02:00 +20°C° 0 mm 1 m/S 739 mmHg 89%
    03:00 +20°C° 0 mm 1 m/S 739 mmHg 90%
    04:00 +20°C° 0 mm 1 m/S 739 mmHg 91%
    05:00 +20°C° 0 mm 1 m/S 739 mmHg 89%
    06:00 +21°C° 0 mm 1 m/S 739 mmHg 87%
    07:00 +22°C° 0 mm 1 m/S 739 mmHg 85%
    08:00 +24°C° 0 mm 1 m/S 739 mmHg 78%
    09:00 +26°C° 0 mm 1 m/S 739 mmHg 71%
    10:00 +28°C° 0 mm 1 m/S 739 mmHg 64%
    11:00 +29°C° 0,1 mm 1 m/S 739 mmHg 60%
    12:00 +30°C° 0,1 mm 1 m/S 739 mmHg 56%
    13:00 +31°C° 0,1 mm 1 m/S 739 mmHg 53%
    14:00 +31°C° 0,3 mm 1 m/S 739 mmHg 53%
    15:00 +31°C° 0,3 mm 1 m/S 738 mmHg 54%
    16:00 +30°C° 0,3 mm 1 m/S 738 mmHg 55%
    17:00 +29°C° 0,5 mm 1 m/S 738 mmHg 60%
    18:00 +27°C° 0,5 mm 1 m/S 738 mmHg 66%
    19:00 +26°C° 0,5 mm 1 m/S 738 mmHg 71%
    20:00 +25°C° 0,4 mm 1 m/S 738 mmHg 75%
    21:00 +24°C° 0,4 mm 1 m/S 738 mmHg 78%
    22:00 +23°C° 0,4 mm 1 m/S 738 mmHg 82%
    23:00 +22°C° 0 mm 1 m/S 738 mmHg 83%

    23 August, Donnerstag

    Zeit Temperatur Niederschläge Wind Luftdruck Luftfeuchtigkeit
    00:00 +22°C° 0 mm 1 m/S 738 mmHg 85%
    01:00 +21°C° 0 mm 1 m/S 738 mmHg 86%
    02:00 +21°C° 0,1 mm 1 m/S 738 mmHg 87%
    03:00 +21°C° 0,1 mm 1 m/S 738 mmHg 88%
    04:00 +21°C° 0,1 mm 1 m/S 737 mmHg 89%
    05:00 +21°C° 0,1 mm 1 m/S 737 mmHg 87%
    06:00 +22°C° 0,1 mm 1 m/S 737 mmHg 86%
    07:00 +22°C° 0,1 mm 1 m/S 737 mmHg 85%
    08:00 +24°C° 0,1 mm 1 m/S 737 mmHg 77%
    09:00 +26°C° 0,1 mm 1 m/S 737 mmHg 70%
    10:00 +27°C° 0,1 mm 1 m/S 737 mmHg 63%
    11:00 +28°C° 0,1 mm 1 m/S 737 mmHg 59%
    12:00 +29°C° 0,1 mm 1 m/S 737 mmHg 54%
    13:00 +30°C° 0,1 mm 1 m/S 736 mmHg 50%
    14:00 +30°C° 0,2 mm 1 m/S 736 mmHg 50%
    15:00 +30°C° 0,2 mm 1 m/S 736 mmHg 49%
    16:00 +30°C° 0,2 mm 1 m/S 735 mmHg 49%
    17:00 +29°C° 0,3 mm 1 m/S 735 mmHg 55%
    18:00 +27°C° 0,3 mm 1 m/S 735 mmHg 61%
    19:00 +25°C° 0,3 mm 1 m/S 735 mmHg 67%
    20:00 +24°C° 0 mm 1 m/S 735 mmHg 69%
    21:00 +23°C° 0 mm 1 m/S 735 mmHg 72%
    22:00 +22°C° 0 mm 1 m/S 735 mmHg 74%
    23:00 +21°C° 0 mm 2 m/S 734 mmHg 76%

    24 August, Freitag

    Zeit Temperatur Niederschläge Wind Luftdruck Luftfeuchtigkeit
    00:00 +20°C° 0 mm 2 m/S 734 mmHg 77%
    01:00 +20°C° 0 mm 2 m/S 734 mmHg 78%
    02:00 +20°C° 0 mm 2 m/S 734 mmHg 79%
    03:00 +19°C° 0 mm 2 m/S 733 mmHg 80%
    04:00 +19°C° 0 mm 2 m/S 733 mmHg 81%
    05:00 +19°C° 0,1 mm 2 m/S 733 mmHg 81%
    06:00 +20°C° 0,1 mm 2 m/S 733 mmHg 80%
    07:00 +20°C° 0,1 mm 2 m/S 733 mmHg 79%
    08:00 +23°C° 0,3 mm 2 m/S 733 mmHg 76%
    09:00 +24°C° 0,3 mm 3 m/S 733 mmHg 72%
    10:00 +25°C° 0,3 mm 4 m/S 733 mmHg 69%
    11:00 +25°C° 0,8 mm 4 m/S 732 mmHg 72%
    12:00 +23°C° 0,8 mm 4 m/S 732 mmHg 74%
    13:00 +23°C° 0,8 mm 4 m/S 732 mmHg 77%
    14:00 +22°C° 0,9 mm 4 m/S 733 mmHg 80%
    15:00 +20°C° 0,9 mm 4 m/S 733 mmHg 83%
    16:00 +19°C° 0,9 mm 4 m/S 733 mmHg 86%
    17:00 +18°C° 0,3 mm 4 m/S 733 mmHg 87%
    18:00 +17°C° 0,3 mm 3 m/S 734 mmHg 87%
    19:00 +16°C° 0,3 mm 3 m/S 734 mmHg 88%
    20:00 +15°C° 0,2 mm 2 m/S 734 mmHg 89%
    21:00 +15°C° 0,2 mm 2 m/S 735 mmHg 90%
    22:00 +14°C° 0,2 mm 2 m/S 735 mmHg 91%
    23:00 +14°C° 0,4 mm 2 m/S 735 mmHg 92%

    25 August, Samstag

    Zeit Temperatur Niederschläge Wind Luftdruck Luftfeuchtigkeit
    00:00 +14°C° 0,4 mm 1 m/S 735 mmHg 92%
    01:00 +13°C° 0,4 mm 1 m/S 736 mmHg 93%
    02:00 +13°C° 0,9 mm 1 m/S 735 mmHg 94%
    03:00 +13°C° 0,9 mm 1 m/S 735 mmHg 94%
    04:00 +13°C° 0,9 mm 1 m/S 735 mmHg 95%
    05:00 +13°C° 1,2 mm 1 m/S 735 mmHg 94%
    06:00 +13°C° 1,2 mm 2 m/S 736 mmHg 94%
    07:00 +13°C° 1,2 mm 2 m/S 736 mmHg 93%
    08:00 +13°C° 1,2 mm 2 m/S 736 mmHg 92%
    09:00 +13°C° 1,2 mm 3 m/S 736 mmHg 90%
    10:00 +13°C° 1,2 mm 3 m/S 736 mmHg 89%
    11:00 +13°C° 1,6 mm 3 m/S 736 mmHg 88%
    12:00 +13°C° 1,6 mm 3 m/S 737 mmHg 87%
    13:00 +13°C° 1,6 mm 3 m/S 737 mmHg 86%
    14:00 +14°C° 0,7 mm 2 m/S 737 mmHg 83%
    15:00 +15°C° 0,7 mm 2 m/S 737 mmHg 81%
    16:00 +15°C° 0,7 mm 2 m/S 737 mmHg 78%
    17:00 +15°C° 0,3 mm 2 m/S 737 mmHg 78%
    18:00 +14°C° 0,3 mm 1 m/S 737 mmHg 79%
    19:00 +14°C° 0,3 mm 1 m/S 737 mmHg 79%
    20:00 +13°C° 0,1 mm 1 m/S 737 mmHg 79%
    21:00 +13°C° 0,1 mm 1 m/S 737 mmHg 79%
    22:00 +12°C° 0,1 mm 1 m/S 738 mmHg 79%
    23:00 +12°C° 0 mm 1 m/S 738 mmHg 80%
    Mehr zeigen